Temperature
9 9 9 9 9 9 8 8 7 7 7 7 7 6 6 5 4 4 3 3 2 2 1 1 1 1 1 0 0 -0 -0 -0 -0 -0 -0 -1 -1 -1
8 8 8 8 8 8 8 7 7 6 6 6 5 5 5 4 4 3 3 2 2 1 1 1 1 0 -0 -0 -1 -1 -1 -1 -1 -1 -1 -2 -2 -2
8 8 7 7 7 7 7 6 6 6 5 5 4 4 3 3 3 2 2 1 1 1 0 -0 -0 -1 -1 -1 -1 -2 -2 -2 -2 -2 -2 -2 -2 -2
7 7 6 6 6 6 6 5 5 5 4 4 3 3 2 2 2 1 1 0 0 -0 -1 -1 -1 -1 -2 -2 -2 -2 -2 -2 -2 -2 -2 -2 -2 -3
6 6 6 5 5 5 5 4 4 4 3 3 2 2 1 1 1 0 0 -0 -1 -1 -1 -1 -2 -2 -2 -2 -3 -3 -3 -3 -3 -2 -3 -3 -3 -3
5 5 5 4 4 4 3 3 3 2 2 2 1 1 0 -0 -1 -1 -1 -1 -2 -2 -2 -2 -2 -3 -3 -3 -3 -2 -3 -3 -3 -3 -3 -3 -3 -3
4 4 3 3 3 2 2 2 1 1 1 0 -0 -1 -1 -1 -2 -2 -2 -2 -3 -3 -3 -3 -3 -3 -3 -3 -3 -3 -3 -3 -3 -3 -3 -3 -4 -4
3 3 2 2 2 1 1 0 0 -0 -1 -1 -1 -2 -2 -3 -3 -3 -4 -4 -3 -4 -3 -3 -3 -3 -3 -3 -3 -3 -3 -3 -3 -3 -4 -4 -4 -4
2 2 1 1 0 0 -0 -0 -1 -1 -2 -2 -2 -3 -3 -4 -4 -4 -4 -5 -4 -5 -5 -3 -3 -3 -3 -3 -3 -3 -3 -3 -4 -4 -4 -4 -4 -4
1 1 0 -0 -1 -1 -1 -1 -2 -2 -3 -3 -3 -4 -4 -5 -5 -5 -5 -5 -5 -5 -5 -4 -3 -3 -3 -3 -3 -3 -3 -4 -4 -4 -4 -4 -4 -4
-0 -1 -1 -1 -2 -2 -2 -2 -2 -3 -3 -4 -4 -4 -5 -5 -5 -6 -6 -6 -5 -5 -5 -5 -4 -4 -3 -2 -3 -3 -4 -4 -4 -4 -4 -4 -4 -5
-1 -1 -2 -2 -3 -3 -3 -3 -3 -4 -4 -4 -4 -5 -5 -5 -6 -6 -6 -6 -6 -6 -6 -6 -6 -6 -5 -3 -2 -3 -3 -4 -4 -4 -4 -4 -5 -5
-2 -2 -3 -3 -3 -4 -4 -4 -4 -4 -4 -5 -5 -5 -5 -5 -6 -6 -6 -6 -6 -6 -6 -7 -7 -7 -8 -6 -3 -3 -3 -4 -4 -4 -4 -5 -5 -5
-2 -3 -3 -4 -4 -4 -4 -4 -5 -5 -5 -5 -5 -5 -5 -5 -6 -6 -6 -6 -6 -6 -6 -7 -7 -7 -8 -8 -6 -4 -4 -4 -4 -4 -5 -5 -5 -6
-3 -3 -4 -4 -4 -5 -5 -5 -5 -5 -5 -6 -6 -6 -6 -6 -6 -6 -6 -6 -6 -6 -6 -7 -7 -7 -8 -8 -8 -6 -5 -4 -4 -5 -5 -6 -5 -6
-3 -4 -4 -4 -5 -5 -5 -6 -6 -6 -6 -6 -6 -6 -6 -6 -6 -6 -6 -6 -6 -5 -6 -6 -7 -8 -8 -8 -8 -7 -6 -6 -5 -6 -6 -6 -6 -6
-4 -4 -4 -5 -5 -5 -5 -6 -6 -6 -6 -6 -6 -6 -6 -6 -6 -7 -7 -7 -7 -6 -5 -6 -7 -7 -8 -8 -8 -7 -6 -6 -6 -6 -7 -7 -6 -5
-4 -4 -5 -5 -5 -5 -6 -6 -6 -6 -6 -7 -7 -7 -7 -7 -7 -7 -7 -7 -7 -7 -7 -6 -7 -8 -8 -7 -7 -7 -7 -7 -7 -7 -8 -8 -7 -5
-4 -5 -5 -5 -5 -6 -6 -6 -6 -6 -7 -7 -7 -7 -7 -7 -7 -7 -7 -8 -8 -8 -7 -7 -8 -9 -10 -9 -8 -7 -8 -7 -8 -8 -8 -8 -8 -6
-4 -5 -5 -5 -6 -6 -6 -6 -6 -7 -7 -7 -7 -7 -8 -8 -8 -8 -8 -8 -8 -8 -8 -7 -8 -9 -9 -10 -9 -8 -7 -8 -8 -8 -8 -8 -8 -7
-5 -5 -5 -6 -6 -6 -6 -7 -7 -7 -7 -7 -7 -8 -8 -8 -8 -8 -8 -8 -9 -9 -9 -8 -8 -9 -9 -10 -10 -8 -7 -7 -8 -9 -8 -9 -8 -8
-5 -5 -5 -6 -6 -6 -7 -7 -7 -7 -7 -7 -8 -8 -8 -8 -8 -8 -9 -9 -9 -9 -9 -8 -8 -9 -9 -10 -10 -9 -7 -7 -7 -8 -8 -8 -9 -8
-5 -5 -5 -6 -6 -6 -7 -7 -7 -7 -7 -8 -8 -8 -8 -8 -8 -9 -9 -9 -9 -9 -9 -9 -9 -9 -9 -9 -9 -9 -9 -8 -8 -8 -7 -7 -8 -8
Wind_Speed
2 3 3 2 2 2 2 3 5 5 5 3 2 1 3 4 6 7 7 9 10 11 12 13 13 13 14 15 15 16 16 16 17 17 17 18 18 18
1 2 1 1 1 1 1 1 2 4 3 1 1 1 2 3 6 6 6 8 9 11 12 13 13 14 14 15 15 16 16 17 17 18 18 18 18 18
3 3 3 3 3 2 2 2 1 1 2 1 1 1 1 1 1 3 3 5 6 9 12 13 13 14 15 15 16 16 17 17 18 18 18 19 19 19
4 5 4 4 4 3 3 3 2 2 1 2 1 1 1 1 1 1 2 4 5 8 11 12 13 14 15 15 15 16 17 17 17 18 18 19 19 19
6 5 5 5 5 4 4 3 2 3 3 2 1 1 1 0 0 1 1 2 4 7 10 12 13 13 14 15 16 16 17 17 17 17 18 18 19 19
7 6 5 5 5 4 4 4 3 3 3 3 2 1 1 1 1 1 2 2 3 6 8 9 10 13 14 16 16 16 16 17 17 18 18 19 19 20
7 6 6 7 7 5 4 3 3 3 2 2 1 1 0 1 1 1 2 3 3 2 2 4 8 10 13 15 15 16 16 16 17 17 18 18 19 20
6 6 6 6 7 7 7 5 4 3 2 1 1 0 1 1 1 1 1 2 3 2 2 5 5 6 10 12 14 16 16 16 16 17 17 18 19 20
5 4 4 4 6 4 5 7 6 5 3 1 1 2 2 2 2 2 3 3 4 3 3 5 4 6 9 12 16 17 17 16 15 16 16 17 18 19
5 4 4 3 2 3 4 3 3 3 3 1 2 3 4 4 4 4 4 4 4 4 4 4 4 5 7 12 16 15 13 13 13 15 17 18 18 19
4 3 3 1 2 3 3 2 2 3 4 4 3 4 6 7 5 1 1 2 4 3 3 3 3 4 5 6 9 10 11 14 16 18 18 19 19 20
3 3 2 1 2 2 2 0 2 3 3 3 4 5 5 6 5 1 3 2 3 4 2 2 3 3 5 4 4 8 11 16 18 19 20 20 20 15
1 1 2 3 3 3 2 1 4 3 1 2 3 3 3 3 2 2 3 4 4 5 3 2 3 2 4 6 5 5 7 8 11 15 19 19 19 15
0 1 3 4 4 4 3 4 5 3 1 2 2 3 3 3 3 4 6 7 8 9 9 6 5 5 6 9 8 6 5 8 9 10 11 16 16 18
1 3 4 4 4 3 5 5 3 1 1 2 3 4 3 4 4 4 6 8 10 13 15 14 9 8 9 10 9 10 9 7 7 7 6 7 8 9
2 3 4 4 3 3 3 3 2 2 2 3 4 4 4 4 4 4 5 5 6 6 9 14 14 10 10 11 12 14 11 8 7 7 9 10 10 11
1 0 1 2 2 2 2 2 2 2 3 3 3 4 5 5 5 5 5 5 6 8 8 5 9 12 11 12 13 14 13 12 12 11 10 12 11 10
1 1 2 2 3 3 4 3 3 3 3 4 4 5 5 6 7 6 6 7 8 9 9 8 6 7 6 9 15 14 12 12 11 10 10 13 14 10
2 2 3 4 4 4 4 4 4 4 4 4 5 6 6 6 7 7 7 8 9 10 10 8 7 8 11 12 7 12 11 10 10 11 11 12 15 13
2 4 4 5 5 5 5 5 5 5 5 5 6 6 6 7 8 8 8 9 10 11 11 9 8 9 11 12 11 10 15 14 12 14 13 12 13 18
4 5 5 5 5 5 5 5 6 6 6 6 7 7 7 7 8 9 9 14 13 11 12 12 10 14 11 9 12 12 10 15 18 14 13 14 15 14
5 5 5 6 5 5 6 6 6 6 7 7 7 7 7 8 9 11 11 11 11 12 13 13 11 10 10 12 15 17 17 13 15 23 25 23 14 9
6 6 6 6 6 5 6 6 7 7 7 7 8 8 8 9 9 10 11 12 12 13 13 14 12 10 12 13 15 16 18 17 13 12 13 19 25 29
Wind_Direction
216 211 216 216 198 210 205 198 210 235 243 213 193 157 162 170 187 191 200 218 233 245 255 265 272 277 279 280 282 283 284 285 285 285 283 282 281 281
119 124 125 106 89 87 147 178 209 223 238 136 151 113 150 168 186 184 201 222 241 255 263 268 273 275 277 279 281 282 282 282 282 281 281 281 281 281
81 98 94 88 95 86 85 90 82 158 216 107 71 72 123 143 165 176 207 233 250 264 271 274 277 278 279 280 281 281 281 281 281 281 281 281 281 281
79 85 86 90 88 82 88 91 89 78 140 162 104 82 128 178 190 221 247 258 262 271 277 281 283 284 283 282 282 282 282 281 281 281 280 280 280 280
79 87 91 95 88 80 83 84 80 73 74 113 108 63 47 74 96 286 277 289 287 285 287 287 286 286 287 288 288 287 286 284 283 281 280 278 278 278
72 76 78 86 96 96 86 82 83 80 80 92 89 70 49 36 72 328 309 302 290 292 289 288 290 294 294 293 292 292 290 287 283 281 278 277 276 276
72 69 73 84 91 94 99 100 97 89 84 82 85 66 26 5 310 294 289 305 291 278 294 290 293 290 290 291 292 289 286 284 282 280 279 278 277 276
77 65 66 67 76 80 86 89 92 98 112 121 132 196 259 252 246 261 282 322 302 288 295 286 274 275 278 281 285 288 288 287 285 284 282 281 279 278
76 70 66 64 65 61 65 58 45 42 50 141 186 230 233 229 218 248 247 241 252 265 290 284 268 273 278 282 292 292 290 289 288 288 287 284 282 281
71 75 79 56 54 82 77 54 29 10 355 10 207 228 234 231 220 222 235 258 263 255 227 269 284 275 286 286 290 290 289 292 294 295 294 289 286 283
59 67 82 39 27 63 85 52 3 334 338 338 316 290 283 287 276 229 255 282 292 280 224 241 285 294 287 282 284 289 293 297 297 296 294 290 287 285
43 30 30 15 1 23 109 134 296 289 301 330 337 337 334 326 324 253 198 221 261 283 259 246 281 318 309 282 262 270 278 287 290 292 293 291 288 285
69 360 322 329 339 335 337 219 269 288 265 305 312 312 315 314 310 287 221 202 229 252 257 252 265 246 259 290 288 259 259 268 278 284 289 287 285 280
163 276 290 309 320 325 327 303 307 333 8 312 303 299 300 297 292 290 278 259 246 251 259 250 257 257 272 282 285 286 277 268 272 277 276 281 282 281
249 286 302 312 327 332 319 319 340 357 303 290 287 284 280 280 289 295 290 280 271 263 259 251 247 257 261 270 276 285 295 289 271 266 268 266 269 271
300 306 324 334 341 325 324 336 331 276 265 262 276 282 289 290 289 286 288 294 290 280 257 251 246 244 260 264 270 278 278 277 282 274 275 277 271 265
254 328 341 330 326 316 306 297 292 298 299 288 285 289 292 292 290 286 279 282 279 288 293 271 251 245 246 259 269 269 272 272 271 276 279 282 276 264
260 240 271 278 279 284 290 293 288 283 281 280 280 281 285 286 288 285 278 277 280 282 284 286 285 285 272 257 242 257 263 266 271 271 268 279 283 271
243 248 259 265 268 270 269 269 272 274 273 271 274 275 278 280 281 283 282 280 279 280 280 279 275 279 287 291 265 233 247 267 275 277 272 271 277 280
238 249 257 262 264 265 266 267 270 274 271 270 271 270 271 275 277 277 276 275 279 282 282 275 263 260 266 279 284 274 254 259 270 275 278 276 274 277
252 253 254 257 259 261 262 263 264 268 270 271 270 268 267 269 272 273 276 279 280 280 280 279 271 274 274 276 277 276 265 253 254 263 273 279 283 284
253 255 257 256 255 257 260 261 264 266 267 266 267 267 266 266 269 273 274 276 276 275 277 279 279 278 270 271 275 282 287 280 266 267 264 263 270 274
252 254 257 258 255 254 255 257 261 265 264 264 267 268 266 269 270 271 273 274 275 277 280 284 284 278 272 270 275 279 283 287 287 281 271 264 262 263
Height
1499 1499 1499 1499 1500 1500 1500 1500 1500 1497 1496 1496 1496 1496 1496 1496 1497 1497 1498 1499 1500 1500 1500 1500 1501 1500 1500 1499 1498 1498 1497 1496 1496 1495 1495 1494 1494 1494
1493 1493 1493 1493 1493 1493 1493 1493 1493 1492 1491 1490 1490 1491 1491 1491 1491 1492 1492 1493 1493 1494 1494 1494 1494 1493 1493 1492 1492 1491 1490 1489 1489 1489 1488 1488 1488 1488
1487 1488 1487 1488 1487 1488 1487 1487 1487 1487 1486 1486 1486 1485 1485 1486 1486 1486 1486 1487 1487 1488 1488 1488 1487 1487 1487 1486 1485 1484 1484 1483 1482 1482 1481 1481 1481 1481
1483 1483 1483 1483 1483 1483 1482 1482 1482 1482 1482 1481 1481 1481 1481 1481 1481 1481 1482 1482 1482 1482 1482 1482 1481 1481 1481 1480 1479 1478 1477 1476 1476 1475 1474 1474 1474 1474
1479 1479 1479 1479 1479 1479 1478 1478 1478 1478 1478 1478 1477 1477 1477 1477 1477 1477 1477 1477 1477 1477 1477 1476 1475 1475 1474 1474 1473 1472 1471 1470 1469 1468 1468 1467 1467 1467
1476 1476 1476 1476 1476 1476 1475 1475 1475 1474 1474 1474 1474 1473 1473 1473 1473 1473 1473 1473 1472 1472 1471 1471 1470 1469 1469 1468 1466 1465 1464 1463 1462 1461 1461 1461 1460 1460
1474 1474 1473 1473 1473 1473 1473 1472 1472 1472 1471 1471 1471 1470 1470 1470 1470 1469 1469 1468 1468 1467 1466 1466 1465 1464 1463 1462 1460 1459 1458 1457 1456 1455 1454 1454 1453 1453
1472 1472 1472 1472 1471 1471 1471 1470 1470 1470 1469 1469 1468 1468 1467 1467 1466 1466 1465 1464 1463 1464 1462 1461 1460 1458 1457 1456 1454 1453 1451 1450 1449 1448 1447 1447 1446 1445
1471 1471 1471 1470 1470 1470 1469 1469 1468 1467 1467 1467 1466 1465 1464 1464 1463 1463 1462 1461 1460 1459 1457 1454 1455 1453 1452 1449 1448 1447 1445 1444 1443 1442 1440 1439 1438 1437
1470 1470 1470 1469 1469 1468 1467 1466 1466 1465 1464 1463 1463 1462 1462 1461 1460 1460 1458 1457 1456 1455 1453 1450 1448 1447 1445 1444 1442 1441 1440 1438 1436 1435 1433 1432 1430 1429
1470 1469 1469 1468 1467 1466 1465 1464 1463 1462 1462 1461 1460 1459 1458 1458 1457 1456 1455 1453 1451 1450 1449 1446 1443 1440 1438 1437 1436 1435 1434 1432 1430 1428 1426 1424 1422 1420
1469 1468 1467 1466 1465 1464 1463 1462 1461 1460 1459 1458 1457 1456 1455 1455 1454 1453 1451 1450 1448 1446 1444 1442 1439 1436 1431 1429 1429 1429 1427 1425 1423 1420 1418 1416 1414 1412
1467 1466 1465 1464 1463 1462 1461 1459 1458 1457 1456 1455 1454 1453 1452 1451 1450 1449 1448 1446 1444 1442 1441 1438 1435 1432 1430 1424 1421 1421 1419 1417 1415 1412 1410 1408 1406 1404
1466 1464 1463 1462 1461 1459 1458 1457 1456 1454 1453 1452 1451 1450 1449 1448 1446 1445 1444 1442 1440 1438 1436 1434 1430 1428 1424 1419 1415 1412 1412 1410 1407 1404 1403 1401 1399 1397
1463 1462 1461 1460 1458 1457 1456 1454 1453 1451 1450 1449 1448 1447 1445 1444 1442 1440 1439 1437 1434 1433 1431 1428 1425 1422 1420 1415 1410 1406 1403 1401 1400 1398 1395 1393 1391 1389
1461 1460 1458 1457 1455 1454 1453 1451 1450 1449 1447 1446 1444 1443 1441 1439 1437 1435 1433 1431 1428 1427 1426 1423 1420 1417 1413 1409 1405 1400 1398 1395 1392 1390 1387 1384 1382 1380
1458 1457 1456 1454 1453 1451 1450 1448 1447 1446 1444 1442 1440 1439 1437 1435 1432 1430 1428 1425 1422 1419 1417 1416 1414 1410 1406 1403 1398 1394 1391 1388 1385 1382 1379 1374 1372 1370
1456 1454 1453 1451 1449 1448 1446 1445 1444 1442 1440 1438 1436 1434 1432 1429 1427 1425 1422 1419 1416 1413 1410 1408 1406 1402 1398 1394 1392 1387 1384 1381 1378 1375 1371 1366 1361 1360
1453 1451 1449 1448 1446 1444 1443 1441 1439 1438 1436 1434 1432 1429 1427 1424 1422 1419 1417 1414 1410 1407 1404 1402 1399 1396 1391 1385 1382 1381 1377 1373 1369 1366 1363 1359 1353 1350
1449 1447 1446 1444 1442 1440 1439 1437 1435 1433 1431 1429 1426 1424 1422 1419 1416 1413 1410 1407 1404 1400 1396 1394 1393 1390 1386 1380 1373 1369 1370 1366 1362 1358 1354 1350 1345 1342
1445 1444 1442 1440 1438 1436 1434 1432 1430 1428 1425 1423 1421 1418 1416 1413 1410 1407 1404 1401 1397 1393 1389 1386 1385 1383 1378 1374 1366 1359 1358 1358 1355 1350 1346 1341 1336 1332
1441 1439 1437 1435 1433 1431 1429 1427 1424 1422 1420 1417 1415 1412 1410 1407 1403 1400 1397 1393 1390 1386 1382 1378 1376 1373 1370 1365 1358 1352 1347 1345 1344 1341 1338 1335 1331 1324
1436 1434 1432 1430 1428 1426 1423 1421 1418 1416 1413 1411 1408 1405 1402 1399 1396 1393 1389 1386 1382 1378 1374 1370 1367 1364 1360 1356 1351 1345 1339 1334 1331 1328 1325 1323 1321 1317